Ýolöten

Turkmenistan     37˚17′48″N   62˚21′14″E
temp.,
°C
wind,
m/s
gust,
m/s
humid.,
%
clouds,
%
prec.,
mm/h
press.,
hPa
HPBL,
m
28 november, sat
sat2823:00+7˚nw6106794 0.0 1036416
02:00+6˚wnw4773100 0.0 1040767
05:00+5˚n237399 0.0 1041222
08:00+4˚ne337986 0.0 104374
11:00+7˚e455646 0.0 1042646
14:00+11˚ene553626 0.0 10391069
17:00+9˚ene783852 0.0 1037791
20:00+7˚ene61146100 0.0 1037403
29 november, sun
sun2923:00+6˚ne61049100 0.0 1037354
02:00+5˚ene4851100 0.0 1035348
05:00+4˚ene475197 0.0 1035271
08:00+4˚ene4649100 0.0 1035275
11:00+8˚ene463898 0.0 1035387
14:00+12˚ne5631100 0.0 1032678
17:00+10˚ne562989 0.0 1031523
20:00+6˚nne34420 0.0 1032101
30 november, mon
mon3023:00+5˚nne23469 0.0 103126
02:00+4˚ne234988 0.0 103032
05:00+4˚ne334994 0.0 102844
08:00+4˚ene2347100 0.0 102857
11:00+7˚ene2237100 0.0 1027264
14:00+11˚ne342999 0.0 1023632
17:00+11˚nne553199 0.0 1022399
20:00+8˚n674399 0.1 1025238
1 december, tue
tue123:00+7˚nw454494 0.2 1026226
02:00+6˚nw464166 0.0 1026237
05:00+4˚wnw345244 0.0 1026104
08:00+3˚wnw33600 0.0 102861
11:00+6˚w22490 0.0 1028332
14:00+9˚wnw11420 0.0 1026536
17:00+11˚ene01410 0.0 1025408
20:00+8˚nne34440 0.0 102771
2 december, wed
wed223:00+7˚ene33450 0.0 102742
02:00+6˚ene23470 0.0 102726
05:00+5˚ene235010 0.0 102724
08:00+5˚ne235356 0.0 102822
11:00+10˚ene334131 0.0 1028360
14:00+13˚ne233442 0.0 1025737
17:00+12˚ne553669 0.0 1024528
20:00+9˚nne464687 0.0 1025154